Temperature
20 20 20 19 19 19 19 19 19 19 19 19 19 19 19 19 19 19 19 18 18 18 18 18 18 18 18 18 18 18 18 18 18 18 18 18 18 18 18 18 18 18 18
20 20 20 20 19 19 19 19 19 19 19 19 19 19 19 19 19 18 18 18 18 18 18 18 18 18 18 18 18 18 18 18 18 18 18 18 18 18 18 18 18 18 18
20 20 20 20 19 19 19 19 19 19 19 19 19 19 19 18 18 18 18 18 18 18 18 18 18 18 18 18 18 18 18 18 18 18 18 18 18 18 18 18 18 18 18
20 20 20 20 19 19 19 19 19 19 19 18 19 19 18 18 18 18 18 18 18 18 18 18 18 18 18 18 18 18 18 18 18 18 18 18 18 18 18 18 18 18 18
20 20 20 20 20 19 19 19 19 19 19 19 18 19 18 18 18 18 18 18 18 18 18 18 18 18 18 18 18 18 18 18 18 18 18 18 18 18 18 18 18 18 18
20 20 20 20 20 19 19 19 19 19 19 19 18 19 19 19 18 18 19 18 18 18 18 18 18 18 18 18 18 18 18 18 18 18 18 18 18 18 18 18 17 17 17
20 20 20 20 20 19 19 19 19 19 19 19 19 19 19 19 19 19 19 19 18 18 18 18 18 19 19 19 19 19 18 18 18 18 18 18 18 18 18 17 17 17 17
20 20 20 20 20 20 19 19 19 19 19 19 19 19 19 19 19 19 19 19 19 19 18 19 19 19 19 19 19 19 19 19 18 18 18 18 18 18 18 18 17 17 17
21 20 20 20 20 20 20 19 19 19 19 19 19 19 19 19 19 19 19 19 19 19 19 19 19 19 19 19 19 19 19 19 18 18 18 18 18 18 18 17 17 17 17
21 20 20 20 20 20 20 20 19 19 19 19 19 19 19 19 19 19 19 19 19 19 19 19 19 19 19 19 19 19 19 19 18 18 18 18 18 18 18 18 17 17 17
21 21 21 20 20 20 19 20 19 19 19 19 19 19 19 19 19 19 19 19 19 19 19 19 19 19 19 19 19 19 19 19 18 18 18 18 18 18 18 18 18 17 17
22 21 21 21 20 20 20 20 19 19 19 19 19 19 19 19 19 19 19 19 19 19 19 19 19 19 19 19 19 19 19 19 19 18 19 18 18 18 18 18 18 17 17
22 22 21 21 20 20 20 20 20 19 19 19 19 19 19 19 19 19 19 19 19 19 19 19 19 19 19 19 19 19 19 19 19 19 19 18 18 18 18 18 18 17 17
22 22 21 21 20 20 20 20 20 20 19 19 19 19 19 19 19 19 19 19 19 19 19 19 19 19 19 19 19 19 19 19 19 19 19 18 18 18 18 18 18 17 17
22 21 21 21 20 20 20 20 20 20 20 19 19 19 19 19 19 19 19 19 19 19 19 19 19 19 19 19 19 19 19 19 19 19 18 18 18 18 18 18 18 17 17
21 21 21 20 20 20 20 20 20 20 20 19 19 19 19 19 19 19 19 19 19 19 19 19 19 19 19 19 19 19 19 19 19 19 18 18 18 18 18 18 18 18 17
21 21 20 20 20 20 20 20 20 20 20 19 19 19 19 19 19 19 19 19 19 19 19 19 19 19 19 19 19 19 19 19 19 19 18 18 18 18 18 18 18 18 18
21 21 21 21 20 20 20 20 20 20 20 20 19 19 19 19 19 19 19 19 19 19 19 19 19 19 19 19 19 19 19 19 19 19 18 18 18 18 18 18 18 18 17
21 21 20 20 20 20 20 20 20 20 20 20 19 19 19 19 19 19 19 19 19 19 19 19 19 19 19 19 19 19 19 19 19 19 19 18 18 18 18 18 18 18 17
21 21 20 20 20 20 20 20 20 20 20 20 19 19 19 19 19 19 19 19 19 19 19 19 19 19 19 19 20 20 20 20 19 19 19 19 18 18 18 18 18 18 17
21 21 20 20 20 20 20 20 20 20 20 20 20 19 19 19 19 19 19 19 19 19 19 19 19 19 19 20 20 20 20 20 20 19 19 19 19 18 18 18 18 18 17
21 21 20 20 20 20 20 20 20 20 20 20 20 19 19 19 19 19 19 19 19 19 19 19 19 19 19 20 20 20 20 20 20 20 20 19 19 19 19 18 18 18 18
22 21 21 20 20 20 20 20 20 20 20 20 19 19 19 19 19 19 19 19 19 19 19 19 19 19 19 20 20 20 20 20 20 20 20 20 19 19 19 19 18 18 18
22 21 21 20 20 20 20 20 19 19 20 20 19 19 19 19 19 19 19 19 19 19 19 19 19 19 19 19 20 20 20 20 20 20 20 20 19 19 19 19 18 18 18
23 22 21 21 20 20 20 20 19 20 20 19 19 19 19 19 19 19 19 19 19 19 19 19 19 19 19 19 19 19 20 20 20 20 19 20 20 19 19 19 19 18 18
24 22 21 21 20 20 20 20 20 20 19 19 19 19 19 19 19 19 19 19 19 18 18 19 19 19 19 19 19 19 19 19 19 20 20 20 20 20 19 19 19 19 18
Wind_Speed
11 13 15 14 14 14 14 13 13 13 13 13 13 13 13 13 13 13 12 12 12 11 11 10 9 8 8 8 8 8 7 7 7 7 7 8 8 7 7 7 7 7 9
14 15 15 15 14 14 14 13 13 12 12 12 12 12 13 12 12 12 11 11 11 10 10 10 9 9 8 7 6 6 5 5 6 7 7 7 7 6 6 6 7 7 9
14 15 15 14 14 14 13 13 12 12 12 12 12 12 12 11 11 11 10 10 10 10 10 9 9 8 7 6 5 4 4 5 7 7 7 6 6 7 7 8 8 8 9
14 14 15 14 14 13 13 12 12 12 12 11 11 11 11 11 10 10 9 9 9 9 9 8 8 8 7 6 5 3 3 5 6 6 5 6 7 7 7 8 8 8 8
15 15 15 14 14 13 12 12 11 12 11 11 10 10 11 11 10 9 9 9 9 9 8 8 8 7 6 5 4 2 2 3 4 4 5 9 9 8 8 8 7 7 7
15 15 15 14 13 13 12 12 12 11 11 10 10 10 10 10 10 10 10 10 10 9 8 8 7 6 6 4 3 2 1 1 3 4 7 9 8 8 8 8 7 7 7
14 14 15 14 13 13 12 12 11 11 11 10 10 10 10 10 11 11 11 10 10 9 8 8 7 6 5 3 2 1 2 3 5 5 8 9 8 8 8 8 8 7 7
13 13 14 14 13 13 12 11 11 11 10 10 10 10 10 10 10 10 10 10 9 8 7 7 6 5 4 3 2 2 3 5 1 7 9 9 9 8 8 8 8 7 7
12 13 13 13 13 13 12 12 11 11 10 9 9 9 9 9 9 9 9 9 8 7 6 6 5 4 4 3 3 4 5 6 3 4 9 8 8 8 7 7 7 7 6
10 11 11 12 12 13 12 11 11 10 9 8 8 8 8 9 9 9 9 8 8 7 5 5 4 4 3 4 5 6 7 7 2 5 8 8 8 7 7 7 7 6 5
9 8 9 10 9 10 12 12 11 10 8 7 8 8 8 7 8 8 9 9 8 7 6 5 5 5 5 6 7 8 7 3 3 6 8 9 9 7 7 7 7 7 6
8 8 8 9 7 7 8 10 8 8 8 6 5 6 6 5 6 8 10 10 9 8 7 7 7 7 7 6 7 8 5 3 3 7 8 10 9 8 8 8 7 7 6
7 7 8 8 6 5 4 5 5 5 6 6 5 5 4 3 5 7 7 8 8 8 7 6 7 7 5 4 3 5 4 2 4 7 9 10 10 9 9 8 7 7 7
6 7 8 8 6 5 4 3 3 4 4 4 5 3 3 2 1 2 2 4 5 5 4 4 4 4 4 4 2 1 1 3 5 8 10 11 10 10 9 8 7 7 7
7 7 8 7 6 5 3 1 3 2 3 5 4 4 2 2 2 2 1 1 2 3 3 1 0 1 1 0 1 2 2 5 5 7 8 10 10 10 9 8 8 7 7
6 7 7 8 7 4 3 1 1 3 3 4 4 4 2 2 2 2 1 1 1 1 1 1 1 1 1 0 2 2 2 3 4 6 8 9 9 9 9 7 7 7 7
7 6 6 8 7 4 3 2 2 2 4 4 4 4 3 3 2 1 1 1 1 2 1 1 0 1 1 1 1 2 1 2 3 4 6 7 8 8 8 8 7 6 7
8 7 5 6 7 5 3 1 1 2 3 3 4 4 3 3 2 1 1 1 1 1 1 0 1 1 0 0 1 1 2 2 2 3 5 6 7 7 9 9 8 7 7
8 7 5 4 6 5 4 2 1 2 1 1 2 3 3 2 2 1 1 1 1 1 1 1 1 1 0 1 1 2 2 3 3 3 4 5 7 8 8 9 9 8 7
9 7 6 5 5 4 4 2 1 2 2 2 2 3 2 1 2 0 1 1 1 0 1 1 1 2 1 2 2 1 2 3 4 3 3 4 5 7 9 9 9 8 8
9 8 7 6 5 3 2 2 2 2 2 2 2 4 2 1 1 1 1 1 0 0 0 1 1 2 2 1 1 1 1 2 3 3 3 3 3 4 7 9 8 8 8
10 9 8 7 6 5 3 2 2 2 2 2 2 3 2 1 0 1 1 1 0 0 0 1 2 2 3 1 1 1 1 1 1 3 3 3 3 3 5 8 8 8 8
11 10 8 7 6 5 4 3 2 2 1 1 3 3 1 1 1 0 1 1 1 0 0 1 1 2 3 2 1 1 1 1 1 0 2 2 3 3 3 4 7 8 9
12 11 9 8 7 5 5 4 4 3 2 2 2 2 3 2 1 1 1 0 1 1 0 1 1 2 2 2 2 1 1 0 0 1 0 1 3 3 3 3 4 6 8
13 12 10 8 7 6 5 4 3 2 2 2 2 3 3 3 2 1 1 1 1 0 0 1 1 1 2 3 3 2 2 0 1 1 1 1 1 2 4 3 3 5 7
12 11 11 9 8 7 6 5 4 3 2 2 2 2 2 2 3 2 3 2 2 1 1 1 1 1 1 3 3 3 2 1 1 1 1 2 1 2 2 3 3 4 6
Wind_Direction
99 99 97 97 93 92 92 91 91 91 94 97 99 101 101 103 104 103 102 105 108 110 112 112 108 105 103 99 96 100 105 112 118 123 124 124 123 124 130 141 137 123 120
108 105 101 99 97 94 93 93 92 92 95 98 102 104 106 107 109 109 109 110 113 113 111 109 107 105 104 101 101 109 126 140 144 144 142 135 130 128 126 129 131 128 130
105 109 103 100 101 99 96 95 96 97 98 99 104 108 109 110 111 113 115 114 116 114 112 110 108 104 101 100 103 114 144 170 173 168 161 142 132 130 127 125 129 134 134
106 106 103 103 100 100 99 97 99 100 101 102 105 109 112 114 116 119 119 116 116 114 114 112 110 106 104 104 105 107 142 180 188 192 183 129 120 122 127 131 135 138 138
102 102 106 107 104 102 101 100 100 102 103 104 105 107 110 112 114 116 117 118 118 117 117 114 111 110 109 109 115 128 159 198 204 187 126 109 109 124 129 129 134 139 140
110 109 111 112 109 107 104 102 102 103 105 105 105 107 109 111 112 112 113 117 119 116 115 115 115 117 116 121 140 176 216 246 235 162 124 116 118 129 131 133 133 135 135
111 113 118 118 116 112 109 107 106 107 110 112 110 109 109 109 110 112 110 113 114 112 112 112 116 121 124 128 156 217 254 275 246 138 118 114 121 132 134 136 138 137 137
115 116 121 124 121 119 117 114 112 113 113 114 115 115 116 116 116 116 115 115 114 113 114 115 121 124 128 139 183 239 265 283 215 123 113 114 126 131 135 137 139 143 145
120 124 132 134 131 127 124 120 119 119 120 122 128 129 130 130 128 128 125 124 123 122 121 119 125 132 149 174 212 243 263 287 309 128 119 118 130 137 141 142 142 142 145
115 123 134 138 138 140 135 132 130 131 135 139 142 146 148 149 149 146 142 139 138 138 139 139 145 161 181 209 228 244 262 279 247 118 114 127 137 143 148 150 148 148 147
109 120 128 128 136 140 139 136 145 146 148 153 154 161 170 172 163 155 145 149 153 158 163 172 182 194 209 226 241 254 264 249 122 108 110 134 143 150 156 157 159 158 155
124 129 124 120 123 126 126 137 153 148 152 156 149 164 174 169 150 143 152 160 166 176 185 200 205 213 221 218 223 236 244 232 131 108 121 141 144 148 155 158 162 163 161
124 121 114 113 110 108 112 133 135 139 150 149 158 155 140 136 140 142 153 163 175 186 195 194 205 219 224 224 213 206 219 133 108 106 125 136 139 142 150 158 164 167 171
118 115 108 109 101 94 89 103 134 142 144 130 142 139 136 128 111 122 138 156 173 183 178 190 204 218 211 215 217 206 118 114 115 116 134 139 139 140 145 152 162 168 173
129 119 104 104 98 88 74 83 117 119 122 126 130 125 129 133 123 108 87 123 175 169 174 204 199 314 325 337 1 78 87 97 109 112 129 145 144 146 149 153 162 169 172
124 119 118 122 114 112 118 107 104 115 118 117 119 119 131 123 94 106 143 217 226 190 182 169 159 226 261 47 36 53 60 96 109 119 137 152 152 152 154 158 165 171 173
131 124 132 135 125 129 132 161 127 135 131 126 135 147 163 134 125 115 150 205 209 222 208 177 217 254 200 156 166 160 122 100 116 132 141 154 161 164 163 165 169 171 173
137 132 138 132 131 129 115 79 76 86 101 127 152 149 146 145 156 156 166 127 140 222 269 219 210 247 67 106 205 179 151 139 137 154 158 163 171 168 171 174 172 170 170
135 132 133 125 131 137 138 145 147 107 109 131 129 130 149 161 145 135 103 120 221 230 314 310 27 324 299 255 215 189 168 172 174 175 170 169 171 166 161 171 173 175 176
140 137 141 140 133 149 152 157 158 143 162 151 129 120 132 156 112 74 169 147 277 80 26 354 335 291 258 264 272 202 193 188 181 180 190 161 163 169 158 155 167 179 182
146 146 151 151 149 166 161 166 172 169 179 160 155 128 139 136 111 96 11 145 179 106 66 318 299 285 268 242 262 261 226 207 178 172 179 166 153 158 151 157 168 166 170
155 156 157 162 163 175 164 176 175 174 180 160 130 124 137 130 118 152 112 287 141 148 98 305 298 296 301 291 261 285 277 226 236 184 166 171 167 164 159 163 164 163 169
162 166 166 162 162 176 170 182 176 155 193 149 138 132 149 152 142 38 102 303 323 221 186 242 296 298 294 302 311 288 311 327 315 260 175 144 153 161 165 159 163 165 170
166 165 157 159 162 171 179 180 185 181 186 160 152 151 160 161 178 169 155 213 313 349 1 278 99 298 300 304 307 294 260 146 167 315 278 186 187 178 177 182 159 156 154
167 165 159 156 161 168 180 185 193 176 185 165 163 169 173 165 171 170 174 201 238 319 336 322 360 322 322 317 312 312 310 271 246 209 267 254 227 196 182 177 169 159 156
163 162 159 157 160 166 177 177 175 186 197 190 186 183 188 169 168 183 184 199 205 213 245 251 274 279 297 313 320 321 317 335 312 278 261 254 236 223 185 167 172 156 155
Height
1500 1499 1499 1499 1500 1500 1501 1502 1503 1504 1505 1506 1508 1509 1510 1512 1513 1514 1516 1517 1519 1520 1522 1523 1524 1525 1526 1527 1527 1527 1528 1529 1530 1532 1533 1534 1535 1536 1538 1539 1540 1541 1542
1501 1501 1501 1501 1502 1503 1503 1504 1505 1506 1507 1509 1510 1511 1512 1514 1515 1517 1518 1519 1520 1522 1523 1524 1525 1526 1527 1527 1527 1527 1527 1527 1529 1531 1533 1534 1535 1537 1538 1539 1540 1541 1542
1502 1502 1503 1503 1504 1505 1506 1507 1508 1509 1510 1511 1512 1513 1514 1515 1517 1518 1519 1521 1522 1523 1525 1526 1526 1527 1527 1527 1526 1525 1524 1524 1527 1530 1532 1533 1535 1537 1538 1539 1540 1541 1542
1504 1505 1505 1506 1506 1507 1508 1509 1510 1511 1512 1513 1514 1515 1516 1517 1518 1520 1521 1522 1523 1525 1526 1527 1527 1528 1528 1527 1527 1525 1523 1523 1525 1529 1532 1534 1535 1536 1538 1539 1540 1541 1542
1506 1507 1507 1508 1509 1509 1510 1511 1512 1513 1514 1515 1516 1517 1518 1519 1521 1521 1523 1524 1525 1526 1527 1528 1528 1529 1528 1528 1527 1526 1524 1523 1525 1529 1532 1534 1535 1537 1538 1539 1540 1541 1542
1509 1509 1510 1510 1511 1512 1513 1513 1514 1516 1516 1517 1518 1519 1520 1521 1522 1523 1525 1526 1527 1528 1529 1529 1529 1530 1530 1529 1529 1528 1527 1526 1527 1531 1533 1534 1535 1537 1538 1539 1540 1540 1541
1511 1511 1512 1512 1513 1514 1515 1515 1516 1517 1518 1519 1521 1521 1522 1523 1524 1525 1526 1527 1528 1529 1530 1531 1531 1531 1531 1530 1530 1530 1530 1530 1530 1532 1534 1535 1536 1537 1537 1538 1539 1540 1541
1513 1513 1514 1514 1515 1516 1517 1517 1518 1519 1520 1521 1522 1523 1524 1525 1526 1527 1528 1529 1530 1531 1531 1532 1532 1532 1532 1532 1532 1532 1532 1532 1533 1534 1534 1535 1536 1536 1537 1538 1539 1539 1540
1515 1515 1516 1516 1517 1518 1519 1520 1520 1521 1522 1523 1524 1525 1527 1528 1528 1529 1530 1531 1532 1532 1533 1533 1533 1533 1534 1534 1534 1534 1534 1534 1534 1535 1535 1535 1535 1536 1536 1537 1538 1539 1540
1517 1517 1518 1519 1519 1520 1521 1522 1522 1523 1524 1525 1526 1527 1528 1529 1531 1531 1532 1533 1533 1534 1534 1535 1535 1535 1535 1535 1535 1535 1535 1535 1535 1535 1535 1535 1535 1535 1536 1536 1537 1538 1539
1518 1519 1520 1521 1522 1523 1523 1524 1525 1525 1526 1527 1528 1529 1530 1531 1532 1533 1534 1534 1535 1535 1535 1536 1536 1537 1537 1536 1536 1537 1536 1536 1535 1535 1534 1534 1534 1534 1534 1535 1536 1537 1538
1520 1521 1522 1523 1524 1525 1527 1526 1527 1528 1528 1529 1530 1531 1532 1533 1534 1535 1535 1536 1536 1536 1537 1537 1537 1537 1537 1537 1538 1537 1537 1537 1536 1535 1534 1533 1533 1532 1532 1534 1535 1537 1538
1521 1522 1523 1524 1525 1527 1528 1528 1529 1530 1530 1530 1531 1533 1533 1535 1536 1536 1536 1537 1537 1538 1538 1538 1538 1538 1538 1539 1539 1539 1538 1537 1537 1535 1534 1533 1533 1532 1532 1533 1535 1536 1537
1522 1523 1524 1525 1526 1527 1528 1529 1530 1531 1531 1532 1533 1534 1535 1535 1536 1537 1537 1538 1538 1539 1539 1539 1539 1539 1539 1540 1540 1539 1539 1538 1537 1536 1535 1534 1534 1533 1533 1534 1535 1536 1537
1522 1524 1525 1526 1527 1528 1528 1530 1531 1531 1532 1533 1534 1535 1535 1536 1537 1538 1538 1538 1539 1539 1540 1540 1540 1540 1540 1540 1540 1540 1540 1539 1538 1537 1536 1535 1535 1534 1535 1535 1536 1536 1537
1523 1524 1525 1526 1527 1528 1529 1530 1531 1532 1533 1534 1534 1535 1536 1537 1538 1538 1538 1539 1539 1540 1540 1540 1540 1540 1540 1540 1540 1540 1539 1539 1539 1538 1537 1536 1536 1536 1536 1536 1536 1536 1537
1523 1524 1525 1526 1527 1528 1530 1531 1532 1533 1534 1534 1535 1536 1536 1537 1538 1538 1539 1539 1539 1540 1540 1541 1541 1540 1540 1540 1540 1540 1540 1539 1539 1539 1538 1537 1537 1536 1536 1536 1536 1536 1537
1523 1524 1525 1527 1527 1529 1530 1531 1532 1533 1534 1535 1535 1536 1537 1537 1538 1538 1539 1539 1539 1540 1540 1540 1540 1540 1540 1540 1540 1540 1539 1539 1539 1539 1539 1538 1537 1537 1536 1536 1536 1537 1537
1522 1523 1525 1526 1527 1528 1530 1531 1532 1533 1534 1535 1536 1536 1536 1537 1538 1538 1538 1539 1539 1540 1540 1540 1540 1540 1540 1540 1540 1540 1539 1539 1539 1539 1539 1538 1538 1537 1537 1537 1537 1537 1537
1522 1523 1524 1526 1527 1528 1530 1531 1532 1533 1534 1535 1535 1536 1536 1537 1537 1537 1538 1538 1539 1539 1539 1539 1539 1539 1540 1539 1540 1539 1539 1539 1538 1538 1538 1538 1538 1537 1537 1537 1537 1537 1537
1521 1522 1524 1525 1526 1528 1529 1530 1532 1533 1533 1534 1535 1535 1536 1536 1537 1537 1537 1538 1538 1538 1538 1538 1538 1538 1539 1539 1539 1539 1538 1538 1538 1538 1538 1538 1538 1537 1537 1536 1536 1537 1537
1520 1521 1523 1524 1525 1527 1528 1530 1531 1532 1533 1534 1534 1535 1535 1536 1536 1537 1536 1537 1537 1537 1537 1537 1538 1538 1538 1539 1539 1538 1538 1539 1538 1538 1537 1537 1537 1537 1537 1537 1537 1536 1536
1519 1520 1522 1523 1524 1526 1527 1529 1531 1531 1533 1533 1534 1534 1534 1535 1535 1535 1535 1536 1536 1537 1537 1537 1537 1537 1538 1538 1538 1538 1538 1538 1538 1538 1537 1537 1537 1537 1537 1537 1536 1536 1536
1517 1519 1521 1522 1523 1525 1526 1528 1529 1530 1531 1532 1533 1534 1534 1534 1534 1534 1534 1535 1535 1536 1536 1536 1536 1537 1537 1537 1537 1537 1538 1537 1537 1537 1537 1536 1536 1536 1536 1536 1536 1536 1535
1516 1518 1519 1520 1522 1523 1525 1526 1528 1529 1530 1531 1532 1533 1533 1533 1533 1533 1534 1534 1534 1535 1535 1535 1536 1536 1536 1536 1536 1536 1536 1536 1536 1536 1536 1536 1536 1535 1535 1535 1535 1535 1534
1514 1516 1517 1518 1520 1522 1523 1525 1526 1528 1529 1530 1531 1531 1532 1532 1532 1532 1533 1533 1533 1534 1534 1534 1535 1535 1535 1535 1535 1535 1535 1535 1535 1535 1534 1534 1534 1535 1534 1534 1534 1534 1533